Fairbanks, AK

2:56 PM AKDT on August 24, 2019 (GMT -0800)
Fairbanks International

Weather History for PAFA - December, 1974

Change the Weather History Date:

Tuesday, December 17, 1974

  Actual Average Record
Temperature  
Mean Temperature -22 °F -4 °F  
Max Temperature -18 °F 5 °F 38 °F (1909)
Min Temperature -26 °F -11 °F -52 °F (1933)
Degree Days  
Heating Degree Days 87 69  
Month to date heating degree days 1157  
Since 1 July heating degree days 5288  
Cooling Degree Days 0 0  
Month to date cooling degree days 0  
Year to date cooling degree days 61  
Moisture  
Dew Point -34 °F    
Average Humidity 56    
Maximum Humidity 74    
Minimum Humidity 46    
Precipitation  
Precipitation 0.00 in 0.02 in 0.86 in (1984)
Month to date precipitation 0.33  
Year to date precipitation 10.50  
Snow  
Snow 0.00 in 0.40 in 11.60 in (1984)
Month to date snowfall 6.5  
Since 1 July snowfall 32.3  
Snow Depth -    
Sea Level Pressure  
Sea Level Pressure 29.61 in    
Wind  
Wind Speed 3 mph (NE)    
Max Wind Speed 7 mph    
Max Gust Speed -    
Visibility 6 miles    
Events Fog    
T = Trace of Precipitation, MM = Missing Value Source: NWS Daily Summary

Daily Weather History Graph

Daily Weather History Graph

Search for Another Location

Airport or City:

Astronomy

Dec. 17, 1974 Rise Set
Actual Time 9:54 AM AHST 1:40 PM AHST
Civil Twilight 8:30 AM AHST 3:05 PM AHST
Nautical Twilight 7:18 AM AHST 4:16 PM AHST
Astronomical Twilight 6:16 AM AHST 5:18 PM AHST
Moon 10:55 AM AHST (12/17) 7:36 PM AHST (12/17)
Length of Visible Light 6h 35m
Length of Day
3h 45m
Waxing Crescent, 16% of the Moon is Illuminated
Dec 17
Waxing Crescent
Dec 21
First Quarter
Dec 28
Full
Jan 4
Last Quarter
Jan 12
New

Hourly Weather History & Observations

Time (AHST) Temp. Windchill Dew Point Humidity Pressure Visibility Wind Dir Wind Speed Gust Speed Precip Events Conditions
12:00 AM -18.0 °F - -29.9 °F 55% 29.79 in 7.0 mi Calm Calm - N/A   Scattered Clouds
1:00 AM -20.0 °F -33.3 °F -34.1 °F 49% 29.78 in 7.0 mi North 4.6 mph - N/A   Clear
2:00 AM -18.9 °F -34.0 °F -31.0 °F 54% 29.75 in 7.0 mi NNE 5.8 mph - N/A   Clear
3:00 AM -20.0 °F -35.3 °F -34.1 °F 49% 29.75 in 7.0 mi NNE 5.8 mph - N/A   Ice Crystals
4:00 AM -18.9 °F -34.0 °F -32.1 °F 51% 29.72 in 7.0 mi ENE 5.8 mph - N/A   Partly Cloudy
5:00 AM -18.0 °F -34.7 °F -29.9 °F 55% 29.71 in 7.0 mi NE 6.9 mph - N/A   Clear
6:00 AM -20.9 °F -34.3 °F -34.1 °F 51% 29.69 in 7.0 mi NNE 4.6 mph - N/A   Clear
7:00 AM -22.0 °F -35.6 °F -35.0 °F 51% 29.68 in 7.0 mi SE 4.6 mph - N/A   Ice Crystals
8:00 AM -23.1 °F -36.8 °F -38.0 °F 46% 29.67 in 10.0 mi NNE 4.6 mph - N/A   Ice Crystals
9:00 AM -22.0 °F - -35.0 °F 51% 29.67 in 15.0 mi Calm Calm - N/A   Clear
10:00 AM -22.0 °F - -35.0 °F 51% 29.65 in 10.0 mi Calm Calm - N/A   Clear
11:00 AM -25.1 °F - -31.0 °F 74% 29.64 in 5.0 mi Calm Calm - N/A Fog Fog
12:00 PM -22.0 °F - -36.0 °F 48% 29.62 in 7.0 mi Calm Calm - N/A   Partly Cloudy
1:00 PM -23.1 °F -34.2 °F -36.0 °F 51% 29.60 in 7.0 mi ESE 3.5 mph - N/A   Partly Cloudy
2:00 PM -22.0 °F -33.0 °F -34.1 °F 54% 29.58 in 7.0 mi South 3.5 mph - N/A   Partly Cloudy
3:00 PM -24.0 °F -35.2 °F -38.0 °F 48% 29.57 in 10.0 mi NNE 3.5 mph - N/A   Clear
4:00 PM -24.0 °F - -38.0 °F 48% 29.55 in 3.0 mi Calm Calm - N/A Fog Fog
5:00 PM -24.0 °F - -36.0 °F 53% 29.54 in 3.0 mi Calm Calm - N/A Fog Fog
6:00 PM -25.1 °F - -31.0 °F 74% 29.51 in 3.0 mi Calm Calm - N/A Fog Fog
7:00 PM -24.0 °F -35.2 °F -36.0 °F 53% 29.49 in 3.0 mi North 3.5 mph - N/A Fog Fog
8:00 PM -20.9 °F - -34.1 °F 51% 29.47 in 3.0 mi Calm Calm - N/A Fog Fog
9:00 PM -25.1 °F - -31.0 °F 74% 29.45 in 3.0 mi Calm Calm - N/A Fog Fog
10:00 PM -26.0 °F - -32.1 °F 73% 29.44 in 3.0 mi Calm Calm - N/A Fog Fog
11:00 PM -25.1 °F -36.5 °F -31.0 °F 74% 29.42 in 3.0 mi NNE 3.5 mph - N/A Fog Fog